Weather History for Worland, WY

Change the Weather History Date:

Monday, February 11, 2013

  Actual Average Record
Temperature  
Mean Temperature 10 °F 22 °F  
Max Temperature 24 °F 36 °F 54 °F (2005)
Min Temperature -5 °F 9 °F -17 °F (1986)
Degree Days  
Heating Degree Days 55 43  
Month to date heating degree days 502 490  
Since 1 July heating degree days 4828 5338  
Cooling Degree Days 0 0  
Month to date cooling degree days 0 0  
Year to date cooling degree days 0 0  
Moisture  
Dew Point 4 °F    
Average Humidity 73    
Maximum Humidity 91    
Minimum Humidity 55    
Precipitation  
Precipitation 0.00 in 0.01 in 0.13 in (1993)
Month to date precipitation 0.06 0.07  
Year to date precipitation 0.19 0.30  
Sea Level Pressure  
Sea Level Pressure 30.25 in    
Wind  
Wind Speed 4 mph (South)    
Max Wind Speed 13 mph    
Max Gust Speed 15 mph    
Visibility 10 miles    
Events      
T = Trace of Precipitation, MM = Missing Value Source: NWS Daily Summary

Daily Weather History Graph

Daily Weather History Graph

Search for Another Location

Airport:

Trip Planner

Search our weather history database for the weather conditions in past years. The results will help you decide how hot, cold, wet, or windy it might be!

Date:

Astronomy

Feb. 11, 2013 Rise Set
Actual Time 7:16 AM MST 5:36 PM MST
Civil Twilight 6:46 AM MST 6:06 PM MST
Nautical Twilight 6:12 AM MST 6:40 PM MST
Astronomical Twilight 5:38 AM MST 7:13 PM MST
Moon 7:37 AM MST (2/11) 7:42 PM MST (2/11)
Length of Visible Light 11h 20m
Length of Day
10h 20m
Waxing Crescent, 3% of the Moon is Illuminated
Feb 11
Waxing Crescent
Feb 17
First Quarter
Feb 25
Full
Mar 4
Last Quarter
Mar 11
New

Hourly Weather History & Observations

Time (MST) Temp. Windchill Dew Point Humidity Pressure Visibility Wind Dir Wind Speed Gust Speed Precip Events Conditions
12:53 AM 6.1 °F -4.3 °F 3.0 °F 87% 30.27 in 10.0 mi SSE 5.8 mph - N/A   Clear
1:53 AM 3.0 °F - -0.0 °F 87% 30.28 in 10.0 mi Calm Calm - N/A   Clear
2:53 AM 7.0 °F -7.5 °F 3.0 °F 84% 30.25 in 10.0 mi South 10.4 mph - N/A   Partly Cloudy
3:53 AM 5.0 °F -8.1 °F 1.9 °F 87% 30.25 in 10.0 mi South 8.1 mph - N/A   Clear
5:53 AM 1.0 °F -11.7 °F -2.0 °F 87% 30.28 in 10.0 mi South 6.9 mph - N/A   Clear
6:53 AM -2.9 °F -15.0 °F -7.1 °F 82% 30.31 in 10.0 mi SW 5.8 mph - N/A   Clear
7:53 AM -2.9 °F -16.5 °F -6.0 °F 87% 30.32 in 10.0 mi South 6.9 mph - N/A   Clear
8:53 AM 3.0 °F -6.4 °F 1.0 °F 91% 30.29 in 10.0 mi SSW 4.6 mph - N/A   Clear
9:53 AM 6.1 °F -0.9 °F 3.9 °F 91% 30.30 in 10.0 mi SSW 3.5 mph - N/A   Clear
10:53 AM 10.0 °F - 6.1 °F 84% 30.29 in 10.0 mi Calm Calm - N/A   Clear
11:53 AM 16.0 °F - 6.1 °F 65% 30.26 in 10.0 mi Calm Calm - N/A   Clear
12:53 PM 18.0 °F - 8.1 °F 65% 30.22 in 10.0 mi Calm Calm - N/A   Clear
1:53 PM 21.0 °F - 8.1 °F 57% 30.20 in 10.0 mi Calm Calm - N/A   Clear
2:53 PM 21.0 °F - 10.0 °F 63% 30.19 in 10.0 mi Calm Calm - N/A   Clear
3:53 PM 24.1 °F - 10.0 °F 55% 30.18 in 10.0 mi Calm Calm - N/A   Clear
4:53 PM 19.9 °F - 10.0 °F 65% 30.21 in 10.0 mi Calm Calm - N/A   Clear
5:53 PM 10.0 °F - 5.0 °F 80% 30.22 in 10.0 mi Calm Calm - N/A   Clear
6:53 PM 14.0 °F -0.2 °F 8.1 °F 77% 30.23 in 10.0 mi SSE 12.7 mph - N/A   Partly Cloudy
7:53 PM 16.0 °F - 9.0 °F 74% 30.23 in 10.0 mi Calm Calm - N/A   Mostly Cloudy
8:53 PM 16.0 °F 3.6 °F 7.0 °F 68% 30.21 in 10.0 mi SSE 10.4 mph - N/A   Clear
9:53 PM 9.0 °F - 5.0 °F 84% 30.24 in 10.0 mi Calm Calm - N/A   Clear
10:53 PM 5.0 °F -5.6 °F 1.9 °F 87% 30.24 in 10.0 mi SE 5.8 mph - N/A   Clear
11:53 PM 3.9 °F -3.4 °F -0.0 °F 84% 30.25 in 10.0 mi SSE 3.5 mph - N/A   Clear